TimeEST,TemperatureF,Dew PointF,Humidity,Sea Level PressureIn,VisibilityMPH,Wind Direction,Wind SpeedMPH,Gust SpeedMPH,PrecipitationIn,Events,Conditions,WindDirDegrees,DateUTC
12:00 AM,33.8,32.0,93,29.96,4.0,South,3.5,-,N/A,,Overcast,180,2013-12-29 05:00:00
1:00 AM,33.8,32.0,93,29.97,4.0,SSW,5.8,-,N/A,,Overcast,200,2013-12-29 06:00:00
2:00 AM,33.8,32.0,93,29.97,4.0,SSW,3.5,-,N/A,,Overcast,200,2013-12-29 07:00:00
3:00 AM,32.0,32.0,100,29.96,5.0,ENE,2.3,-,N/A,,Overcast,70,2013-12-29 08:00:00
4:00 AM,24.8,23.0,93,29.96,15.0,NE,11.5,18.4,N/A,,Overcast,50,2013-12-29 09:00:00
4:08 AM,24.8,23.0,93,29.96,15.0,NE,11.5,17.3,N/A,Snow,Light Snow,50,2013-12-29 09:08:00
4:54 AM,23.0,19.4,86,29.98,5.0,ENE,10.4,20.7,N/A,,Light Freezing Drizzle,60,2013-12-29 09:54:00
5:00 AM,23.0,19.4,86,29.99,5.0,ENE,9.2,-,N/A,,Light Freezing Drizzle,60,2013-12-29 10:00:00
6:00 AM,19.4,15.8,86,29.99,6.0,ENE,10.4,20.7,N/A,,Light Freezing Drizzle,60,2013-12-29 11:00:00
7:00 AM,17.6,14.0,86,29.97,3.0,ENE,9.2,-,N/A,,Light Freezing Drizzle,60,2013-12-29 12:00:00
8:00 AM,15.8,14.0,93,29.96,4.0,NE,10.4,19.6,N/A,,Light Freezing Drizzle,50,2013-12-29 13:00:00
8:38 AM,15.8,12.2,86,29.95,8.0,NE,9.2,20.7,N/A,,Overcast,50,2013-12-29 13:38:00
9:00 AM,15.8,12.2,86,29.96,10.0,ENE,9.2,19.6,N/A,,Overcast,60,2013-12-29 14:00:00
10:00 AM,15.8,12.2,86,29.93,8.0,ENE,15.0,23.0,N/A,,Overcast,60,2013-12-29 15:00:00
11:00 AM,14.0,10.4,86,29.90,8.0,ENE,15.0,23.0,N/A,,Overcast,60,2013-12-29 16:00:00
12:00 PM,14.0,10.4,86,29.86,7.0,NE,11.5,24.2,N/A,,Overcast,50,2013-12-29 17:00:00
1:00 PM,14.0,10.4,86,29.83,5.0,NE,12.7,23.0,N/A,Snow,Light Snow Grains,50,2013-12-29 18:00:00
2:00 PM,14.0,10.4,86,29.80,5.0,ENE,11.5,21.9,N/A,,Overcast,60,2013-12-29 19:00:00
3:00 PM,12.2,8.6,85,29.77,5.0,ENE,11.5,20.7,N/A,Snow,Light Snow Grains,60,2013-12-29 20:00:00
4:00 PM,12.2,8.6,85,29.76,6.0,NE,10.4,19.6,N/A,Snow,Light Snow Grains,50,2013-12-29 21:00:00
5:00 PM,12.2,8.6,85,29.74,6.0,NE,11.5,20.7,N/A,Snow,Light Snow Grains,50,2013-12-29 22:00:00
6:00 PM,12.2,8.6,85,29.71,10.0,ENE,10.4,-,N/A,Snow,Light Snow Grains,60,2013-12-29 23:00:00
7:00 PM,10.4,6.8,85,29.69,10.0,NE,11.5,18.4,N/A,Snow,Light Snow Grains,50,2013-12-30 00:00:00
8:00 PM,12.2,8.6,85,29.68,15.0,NE,10.4,-,N/A,,Overcast,50,2013-12-30 01:00:00
9:00 PM,12.2,8.6,85,29.67,25.0,ENE,8.1,-,N/A,,Overcast,60,2013-12-30 02:00:00
10:00 PM,12.2,6.8,79,29.65,15.0,ENE,9.2,-,N/A,,Overcast,60,2013-12-30 03:00:00
11:00 PM,10.4,6.8,85,29.64,15.0,NE,6.9,-,N/A,,Overcast,50,2013-12-30 04:00:00
11:33 PM,10.4,6.8,85,29.64,15.0,ENE,6.9,-,N/A,,Light Freezing Drizzle,60,2013-12-30 04:33:00